Simultaneous Nadir Overpasses (SNOs) Predictions

Prediction of SNOs between NOAA-20 and AQUA Satellite Orbit:

Table of predicted SNOs for the next 14.0 days since TLE Epoch: 7/26/2018
Index Date (NOAA-20) Time (NOAA-20) Lat,Lon (NOAA-20) SZA (NOAA-20 ) Date (AQUA) Time (AQUA) Lat,Lon (AQUA) SZA (AQUA ) Distance(km) Time Diff (sec)
1 07/29/2018 06:46:21 -76.05, 137.41 100.83 07/29/2018 06:47:14 -76.04, 137.40 100.87 0.45 53
2 07/29/2018 07:36:49 76.77, -52.61 78.27 07/29/2018 07:36:24 76.78, -52.51 78.26 2.79 25
3 07/31/2018 23:03:13 -76.24,-106.16 100.43 07/31/2018 23:03:44 -76.24,-106.12 100.47 0.95 31
4 07/31/2018 23:53:35 77.21, 64.98 78.32 07/31/2018 23:52:49 77.21, 64.93 78.37 1.44 46
5 08/03/2018 15:20:05 -76.43, 10.29 100.01 08/03/2018 15:20:14 -76.43, 10.36 100.03 1.93 9
6 08/03/2018 16:10:28 77.35,-178.67 78.81 08/03/2018 16:09:20 77.35,-178.67 78.86 0.08 68
7 08/06/2018 06:46:32 75.65, -43.90 81.64 08/06/2018 06:47:36 75.66, -43.82 81.57 2.23 64
8 08/06/2018 07:36:56 -76.66, 126.93 99.61 08/06/2018 07:36:43 -76.67, 127.01 99.62 2.52 13
9 08/08/2018 23:03:12 76.35, 74.23 81.50 08/08/2018 23:03:55 76.34, 74.13 81.49 2.70 43




NCC Satellite Simultaneous Nadir Overpasses (SNOs) Prediction Service
